Overview Statistics Trail Chart Weather Telemetry Raw packets
 

This is the latest recevied weather packets stored in our database for station/object HB9FHL-13. If no packets are shown the sender has not sent any weather packets the latest 10 day(s).

<< 26 27 28 29 30 31 32 >>
Time Temp. Humidity Pressure Rain* Wind** Luminosity Snow
1788521449 25.56° C - 1020.3 hPa 0 mm - - -
1788521148 25° C - 1021.8 hPa 0 mm - - -
1788520847 25° C - 1020.6 hPa 0 mm - - -
1788520551 25° C - 1023.6 hPa 0 mm - - -
1788520547 25° C - 1023.6 hPa 0 mm - - -
1788520246 25° C - 1022.5 hPa 0 mm - - -
1788519946 24.44° C - 1020.6 hPa 0 mm - - -
1788519649 25° C - 1023.1 hPa 0 mm - - -
1788519645 25° C - 1023.1 hPa 0 mm - - -
1788519349 25.56° C - 1016.1 hPa 0 mm - - -
1788519345 25.56° C - 1016.1 hPa 0 mm - - -
1788519049 24.44° C - 1023.1 hPa 0 mm - - -
1788519044 24.44° C - 1023.1 hPa 0 mm - - -
1788518448 23.89° C - 1019.2 hPa 0 mm - - -
1788518443 23.89° C - 1019.2 hPa 0 mm - - -
1788518147 24.44° C - 1023 hPa 0 mm - - -
1788518143 24.44° C - 1023 hPa 0 mm - - -
1788517542 23.89° C - 1022.2 hPa 0 mm - - -
1788517296 23.89° C - 1018.8 hPa 0 mm - - -
1788517245 23.89° C - 1018.8 hPa 0 mm - - -
1788517240 23.89° C - 1018.8 hPa 0 mm - - -
1788516944 23.89° C - 1025 hPa 0 mm - - -
1788516939 23.89° C - 1025 hPa 0 mm - - -
1788516710 22.78° C - 1022 hPa 0 mm - - -
1788516709 22.78° C - 1022 hPa 0 mm - - -

* Rain since midnight (hover to see other rain measurements)
** Current wind speed in m/s (hover to see current wind gust speed)